CAPE
0 0 0 0 0 0 0 0 0 0 0 0 0 0 0 0 0 0 0 0 0 0 0 0 0 0 0 0 49 115 262 283 246 242 287 382 381 384 363 258 350 297 176
34 23 2 0 0 1 1 0 0 0 0 0 0 0 0 0 0 0 0 0 0 0 0 0 0 0 0 0 0 48 85 123 141 236 269 305 280 315 377 342 295 231 234
18 1 0 0 0 0 0 0 0 0 0 0 0 0 0 0 0 0 0 0 0 0 0 0 0 0 0 0 0 11 81 89 128 120 148 203 195 321 352 371 358 277 245
0 0 0 0 0 0 0 0 0 0 0 0 0 0 0 0 0 0 0 0 0 0 0 0 0 0 0 0 0 9 70 73 99 91 103 102 109 150 340 352 390 317 163
0 0 0 0 0 0 0 0 0 0 0 0 0 0 0 0 0 0 0 0 0 0 0 0 0 0 0 0 0 6 20 38 15 19 42 92 70 97 126 271 345 222 188
0 0 0 0 0 0 0 0 0 0 0 0 0 0 0 0 0 0 0 0 0 0 0 0 0 0 0 0 3 8 29 42 30 13 1 29 76 56 68 97 155 181 216
0 0 0 0 0 0 0 0 0 0 0 0 0 0 0 0 0 0 0 0 0 0 0 0 0 0 0 0 0 12 10 24 42 48 3 13 33 72 71 89 95 77 206
0 0 0 0 0 0 0 0 0 0 0 0 0 0 0 0 0 0 0 0 0 0 0 0 0 0 0 0 0 6 14 27 36 31 37 3 13 28 24 42 56 69 57
0 0 0 0 0 0 0 0 0 0 0 0 0 0 0 0 0 0 0 0 0 0 0 0 0 0 0 0 0 0 1 0 16 37 33 21 1 0 8 12 0 0 0
0 0 0 0 0 0 0 0 0 0 0 0 0 0 0 0 0 0 0 0 0 0 0 0 0 0 0 0 0 0 0 0 0 13 29 11 0 0 0 14 37 0 0
0 0 0 0 0 0 0 0 0 0 0 0 0 0 0 0 2 0 0 0 0 0 0 0 0 0 0 3 0 0 0 0 0 0 0 0 0 0 0 0 33 19 0
0 0 0 0 0 0 0 0 0 0 0 0 0 0 0 2 1 1 0 0 0 0 0 0 0 0 0 0 4 1 0 0 0 0 0 0 5 0 3 3 0 14 34
0 0 0 0 0 0 0 0 0 0 0 0 0 0 0 0 0 0 10 1 0 0 0 0 0 0 0 0 0 10 2 0 0 0 0 0 0 0 0 0 0 10 10
0 0 0 0 0 0 0 0 0 0 0 0 0 0 0 0 3 1 1 1 0 1 0 0 0 0 0 0 0 0 25 14 0 0 0 0 0 0 0 0 0 0 0
0 0 0 0 0 0 0 0 0 0 0 0 0 0 0 0 0 5 4 0 0 0 2 0 0 0 0 0 0 0 0 6 16 0 0 0 0 0 0 0 0 0 0
0 0 0 0 0 0 0 0 0 0 0 0 0 0 0 0 0 0 0 16 5 0 0 0 0 0 0 0 0 0 0 0 0 1 1 0 0 0 0 0 0 0 0
0 0 0 0 0 0 0 0 0 0 0 0 0 0 0 0 0 0 0 0 2 34 17 0 0 0 0 0 0 0 0 0 0 3 0 0 0 0 0 0 0 0 0
0 0 0 0 0 0 0 0 0 0 0 0 0 0 0 0 0 0 0 0 0 0 9 0 0 0 0 0 0 0 0 0 0 0 5 0 0 0 0 0 0 0 0
0 0 0 0 0 0 0 0 0 0 0 0 0 0 0 0 0 0 0 0 0 0 0 0 0 0 0 0 0 0 0 0 0 0 0 2 0 1 0 0 0 0 0
0 0 0 0 0 0 0 0 0 0 0 0 0 0 0 0 0 0 0 0 0 0 0 0 0 0 0 0 0 0 0 0 0 0 0 0 0 0 0 0 0 0 0
0 0 0 0 0 0 0 0 0 0 0 0 0 0 0 0 0 2 0 2 0 0 0 0 0 0 0 0 0 0 0 0 0 0 0 0 0 0 0 0 0 0 0
0 0 0 0 0 0 0 0 0 0 0 0 0 0 0 0 0 0 0 2 2 0 0 0 0 0 0 0 0 0 0 0 0 0 0 0 0 0 0 0 0 0 0
0 0 0 0 0 0 0 0 0 0 0 0 0 0 0 0 0 0 0 0 0 0 4 0 0 0 0 0 0 0 0 0 0 0 0 0 0 0 0 0 0 0 0
0 0 0 0 0 0 0 0 0 0 0 0 0 0 0 0 0 0 0 1 0 0 0 0 0 0 0 0 0 0 0 0 0 0 0 0 0 0 0 0 0 0 0
0 0 0 0 0 0 0 0 0 0 0 0 0 0 0 0 1 8 1 0 0 0 0 1 6 4 4 11 7 0 0 0 0 0 0 0 0 0 0 0 0 0 0
0 0 0 0 0 0 0 0 1 0 0 0 0 0 0 1 1 5 2 0 0 0 0 0 0 0 0 0 0 0 0 0 0 0 0 0 0 0 0 0 0 0 0
CIN
-0 -0 -0 -0 -0 -0 -0 -0 -0 -0 -0 -0 -0 -0 -0 -0 -0 -0 -0 -0 -0 -0 -0 -0 -0 -0 -0 -0 -67 -44 -20 -24 -37 -35 -32 -19 -14 -23 -27 -32 -31 -33 -58
-124 -132 -137 -0 -0 -106 -52 -0 -0 -0 -0 -0 -0 -0 -0 -0 -0 -0 -0 -0 -0 -0 -0 -0 -0 -0 -0 -0 -0 -59 -48 -32 -42 -34 -31 -28 -17 -12 -19 -23 -38 -52 -56
-205 -14 -0 -0 -0 -0 -0 -0 -0 -0 -0 -0 -0 -0 -0 -0 -0 -0 -0 -0 -0 -0 -0 -0 -0 -0 -0 -0 -0 -39 -41 -34 -22 -31 -37 -26 -27 -20 -11 -9 -23 -52 -59
-0 -0 -0 -0 -0 -0 -0 -0 -0 -0 -0 -0 -0 -0 -0 -0 -0 -0 -0 -0 -0 -0 -0 -0 -0 -0 -0 -0 -0 -39 -70 -58 -25 -24 -32 -42 -30 -29 -21 -6 -8 -9 -17
-0 -0 -0 -0 -0 -0 -0 -0 -0 -0 -0 -0 -0 -0 -0 -0 -0 -0 -0 -0 -0 -0 -0 -0 -0 -0 -0 -0 -0 -71 -73 -83 -83 -52 -32 -30 -44 -43 -30 -18 -5 -16 -32
-0 -0 -0 -0 -0 -0 -0 -0 -0 -0 -0 -0 -0 -0 -0 -0 -0 -0 -0 -0 -0 -0 -0 -0 -0 -0 -0 -0 -74 -67 -70 -71 -75 -63 -12 -31 -26 -42 -53 -43 -25 -13 -19
-0 -0 -0 -0 -0 -0 -0 -0 -0 -0 -0 -0 -0 -0 -0 -0 -0 -0 -0 -0 -0 -0 -0 -0 -0 -0 -0 -0 -0 -51 -55 -49 -53 -58 -14 -65 -36 -26 -29 -27 -30 -29 -11
-0 -0 -0 -0 -0 -0 -0 -0 -0 -0 -0 -0 -0 -0 -0 -0 -0 -0 -0 -0 -0 -0 -0 -0 -0 -0 -0 -0 -0 -46 -52 -38 -47 -53 -53 -18 -73 -44 -41 -22 -20 -15 -24
-0 -0 -0 -0 -0 -0 -0 -0 -0 -0 -0 -0 -0 -0 -0 -0 -0 -0 -0 -0 -0 -0 -0 -0 -0 -0 -0 -0 -0 -0 -23 -0 -54 -42 -45 -60 -30 -0 -64 -42 -0 -0 -0
-0 -0 -0 -0 -0 -0 -0 -0 -0 -0 -0 -0 -0 -0 -0 -0 -0 -1 -0 -0 -0 -0 -0 -0 -0 -0 -0 -0 -0 -0 -0 -0 -3 -44 -32 -58 -0 -0 -0 -58 -34 -0 -0
-0 -0 -0 -0 -0 -0 -0 -0 -0 -0 -0 -0 -0 -0 -0 -0 -29 -0 -0 -0 -0 -0 -0 -0 -0 -0 -0 -59 -0 -0 -0 -0 -0 -0 -0 -0 -0 -8 -0 -0 -26 -41 -0
-0 -0 -0 -0 -0 -0 -0 -0 -0 -0 -0 -0 -0 -0 -0 -2 -2 -2 -0 -0 -0 -0 -0 -0 -0 -0 -0 -0 -27 -6 -15 -0 -0 -0 -0 -1 -21 -35 -75 -104 -0 -8 -20
-0 -0 -0 -0 -0 -0 -0 -0 -0 -0 -0 -0 -0 -0 -0 -0 -0 -4 -2 -1 -0 -0 -0 -0 -0 -0 -0 -0 -0 -13 -13 -0 -0 -0 -0 -0 -0 -0 -0 -0 -0 -11 -10
-0 -0 -0 -0 -0 -0 -0 -0 -0 -0 -0 -0 -0 -0 -0 -0 -6 -7 -4 -0 -0 -0 -0 -0 -0 -0 -0 -0 -0 -1 -7 -11 -0 -0 -0 -0 -0 -0 -0 -0 -0 -0 -0
-0 -0 -0 -0 -0 -0 -0 -0 -0 -0 -0 -0 -0 -0 -0 -0 -0 -3 -1 -0 -0 -0 -0 -0 -0 -0 -0 -0 -0 -0 -0 -3 -9 -0 -0 -0 -0 -0 -0 -0 -0 -0 -0
-0 -0 -0 -0 -0 -0 -0 -0 -0 -0 -0 -0 -0 -0 -0 -0 -0 -0 -4 -2 -7 -0 -0 -0 -0 -0 -0 -0 -0 -0 -0 -0 -0 -1 -2 -0 -0 -0 -0 -0 -0 -0 -0
-0 -0 -0 -0 -0 -0 -0 -0 -0 -0 -0 -0 -0 -0 -0 -0 -0 -0 -0 -0 -5 -1 -1 -0 -0 -0 -0 -0 -0 -0 -5 -0 -0 -0 -0 -0 -1 -0 -0 -0 -0 -0 -0
-0 -0 -0 -0 -0 -0 -0 -0 -0 -0 -0 -0 -0 -0 -0 -0 -0 -0 -0 -0 -0 -0 -8 -10 -0 -0 -0 -0 -0 -0 -0 -0 -0 -0 -0 -1 -4 -0 -0 -0 -0 -0 -0
-0 -0 -0 -0 -0 -0 -0 -0 -0 -0 -0 -0 -0 -0 -0 -0 -0 -0 -0 -0 -0 -0 -0 -0 -0 -0 -0 -0 -0 -0 -0 -0 -0 -0 -0 -0 -0 -26 -0 -0 -0 -0 -0
-0 -0 -0 -0 -0 -0 -0 -0 -0 -0 -0 -0 -0 -0 -0 -0 -0 -0 -0 -0 -0 -0 -0 -0 -0 -0 -0 -0 -0 -0 -0 -0 -0 -0 -0 -0 -0 -0 -0 -0 -0 -0 -0
-0 -0 -0 -0 -0 -0 -0 -0 -0 -0 -0 -0 -0 -0 -0 -0 -0 -1 -1 -5 -0 -0 -0 -0 -0 -0 -0 -0 -0 -0 -0 -0 -0 -0 -0 -0 -0 -0 -0 -0 -0 -0 -0
-0 -0 -0 -0 -0 -0 -0 -0 -0 -0 -0 -0 -0 -0 -0 -0 -0 -0 -0 -0 -1 -0 -0 -0 -0 -0 -0 -0 -0 -0 -0 -0 -0 -0 -0 -0 -0 -0 -0 -0 -0 -0 -0
-0 -0 -0 -0 -0 -0 -0 -0 -0 -0 -0 -0 -0 -0 -0 -0 -0 -0 -0 -0 -0 -0 -1 -1 -0 -0 -0 -0 -0 -0 -0 -0 -0 -0 -0 -0 -0 -0 -0 -0 -0 -0 -0
-0 -0 -0 -0 -0 -0 -0 -0 -0 -0 -0 -0 -0 -0 -0 -0 -0 -1 -0 -2 -0 -0 -0 -0 -0 -0 -0 -0 -0 -0 -0 -0 -0 -0 -0 -0 -0 -0 -0 -0 -0 -0 -0
-0 -0 -0 -0 -0 -0 -0 -0 -0 -0 -0 -0 -0 -0 -1 -0 -0 -0 -1 -0 -0 -0 -0 -0 -0 -0 -0 -0 -0 -1 -0 -0 -0 -0 -0 -0 -0 -0 -0 -0 -0 -0 -0
-0 -0 -0 -0 -0 -0 -0 -0 -1 -0 -0 -0 -0 -0 -1 -1 -1 -0 -1 -0 -0 -0 -0 -0 -0 -0 -0 -0 -0 -0 -0 -0 -1 -0 -0 -0 -0 -0 -0 -0 -0 -0 -0
Wind_Speed
18 19 20 23 25 26 26 26 27 30 33 33 29 26 23 21 21 22 23 22 20 22 22 24 27 29 30 30 29 28 28 28 28 29 30 31 27 20 11 13 12 21 22
16 19 22 24 26 28 29 28 31 34 37 37 39 35 31 26 23 23 25 25 22 20 22 23 23 24 26 31 31 29 28 30 30 29 30 29 34 33 28 24 15 12 12
18 20 24 27 29 31 33 34 35 37 38 37 38 36 35 34 32 29 28 27 26 23 22 22 24 25 26 27 29 31 31 30 30 30 31 31 30 29 32 32 28 19 15
21 24 26 28 30 31 32 34 35 38 36 37 38 37 36 36 36 37 36 34 31 30 29 25 23 24 25 28 29 30 30 31 30 30 30 31 31 30 29 33 33 31 28
22 25 28 31 33 33 31 33 36 35 37 38 38 37 39 40 40 39 40 39 38 35 34 33 30 28 26 25 25 26 28 29 30 31 30 30 31 31 30 31 32 31 29
27 30 33 36 32 31 33 35 34 36 36 39 42 42 41 41 41 37 36 34 33 33 35 38 38 34 32 30 28 27 28 29 28 29 31 31 32 33 33 33 33 33 31
33 35 35 34 34 34 35 35 35 38 39 41 43 47 44 42 39 39 34 33 35 35 36 38 38 38 36 34 33 30 29 29 31 31 30 31 31 32 33 34 34 34 34
33 33 34 34 34 36 37 38 39 39 38 39 42 45 51 49 41 37 36 36 37 37 38 39 38 37 37 39 37 36 34 32 31 32 32 32 31 33 33 33 33 34 35
31 33 34 35 35 35 37 38 39 40 42 39 39 41 49 51 48 40 41 39 41 41 41 41 41 42 40 39 38 38 38 36 35 33 32 32 32 33 34 34 34 34 35
33 34 35 35 35 35 37 38 39 39 40 43 39 38 36 39 46 55 43 48 45 47 46 44 45 42 40 38 36 34 35 37 37 34 31 30 32 33 33 33 34 34 34
33 36 36 36 36 37 38 39 39 40 38 38 39 40 40 42 40 47 60 53 51 48 47 45 43 42 40 38 37 34 34 32 30 30 32 32 33 34 33 32 33 33 34
35 35 33 33 34 35 38 37 38 39 40 41 41 41 41 42 46 45 50 56 55 49 44 42 38 40 39 38 40 37 34 32 33 31 30 31 31 31 32 34 34 33 34
34 33 32 33 34 36 38 38 40 42 43 44 44 44 42 44 43 45 46 48 50 48 43 39 36 37 36 37 37 37 37 35 32 32 34 33 30 30 29 30 31 33 36
27 29 29 32 35 37 38 39 39 39 39 41 41 41 42 40 38 37 37 40 44 44 42 40 34 34 34 34 34 34 34 36 36 36 36 39 37 31 29 29 30 32 32
27 27 31 35 37 37 37 36 38 40 38 37 37 37 37 36 35 33 33 33 35 38 41 33 33 31 33 31 29 29 29 30 32 33 35 37 40 35 37 33 30 30 31
27 28 33 35 35 35 33 33 37 37 35 35 35 34 33 34 35 36 36 33 31 32 35 36 35 34 29 27 28 29 26 28 29 34 38 39 37 32 29 31 33 30 30
27 32 32 33 33 32 31 34 35 32 30 30 30 32 34 36 38 39 39 38 37 32 34 34 32 31 29 28 29 29 28 26 28 32 37 41 41 35 31 31 30 30 29
29 29 31 32 30 32 32 31 29 25 26 29 33 36 39 40 42 40 39 40 39 40 38 38 31 31 30 29 29 29 28 27 23 27 30 36 38 40 30 29 28 30 29
32 35 29 27 29 33 33 28 26 27 30 31 35 38 40 42 44 42 40 39 38 38 33 33 36 32 33 32 34 30 29 28 27 24 26 25 35 37 35 31 30 29 29
32 30 25 26 32 33 30 27 27 29 31 34 36 37 39 40 40 39 39 38 36 35 34 36 35 34 33 35 34 33 33 29 30 24 23 22 20 21 29 31 31 31 30
28 24 24 31 33 30 25 26 28 30 33 36 36 35 35 37 38 35 36 33 34 33 33 34 35 35 36 36 37 32 35 35 34 28 26 24 24 23 22 23 25 27 29
24 23 27 31 29 23 24 25 28 32 34 35 34 33 31 32 29 31 32 35 34 34 34 33 33 36 36 36 34 36 35 35 35 27 32 33 27 27 27 25 22 20 21
25 20 26 25 25 25 24 27 29 31 33 32 31 29 29 29 28 25 26 32 35 34 32 33 37 37 38 36 35 35 34 33 34 30 32 38 32 36 32 30 28 26 25
18 21 22 23 25 28 27 29 30 31 31 30 29 28 28 28 27 26 21 27 31 31 31 32 34 35 38 37 36 36 34 32 32 33 30 37 34 37 35 34 34 31 32
19 20 20 24 27 30 31 31 32 33 32 31 29 28 27 27 25 25 25 22 29 32 30 31 31 30 31 31 31 31 30 31 35 33 27 31 35 39 39 40 36 36 38
20 19 22 25 27 29 32 32 32 33 33 29 28 26 25 24 21 22 18 17 8 29 31 32 33 33 33 34 33 33 31 33 31 31 27 26 30 29 34 33 34 35 33
Wind_Direction
12 10 6 0 357 355 351 348 344 339 333 329 332 336 338 339 339 337 337 335 333 330 329 323 311 304 300 299 297 297 294 293 294 290 284 278 276 273 234 216 242 263 261
7 2 358 357 355 353 350 347 341 334 328 325 318 320 326 328 326 326 326 326 322 320 319 318 319 315 308 300 295 295 294 291 289 288 286 283 274 268 268 266 254 229 219
359 358 353 350 348 346 342 340 337 332 327 325 323 322 323 324 324 322 319 316 315 311 308 307 308 309 308 306 299 294 291 290 288 286 284 282 280 274 268 265 264 258 249
357 351 347 344 342 340 338 336 335 331 328 326 324 323 325 324 323 321 320 318 313 307 303 300 298 300 302 302 301 295 292 289 287 286 284 281 279 277 271 268 266 262 261
351 347 344 339 336 334 335 333 332 332 329 327 324 323 322 320 320 321 317 316 314 311 306 301 294 291 292 295 298 297 293 290 288 286 284 282 278 276 274 270 267 262 262
345 340 335 334 336 335 334 332 331 329 328 326 322 319 318 317 317 320 321 323 325 325 317 306 300 297 289 288 290 291 291 289 287 286 284 282 280 276 273 271 269 265 263
337 336 336 337 336 335 334 334 331 328 325 324 320 316 314 313 313 313 316 316 317 319 318 315 312 300 295 289 283 284 285 285 282 282 282 281 279 278 275 271 268 267 263
342 343 341 340 339 335 333 331 329 326 324 324 319 316 311 309 310 312 312 311 312 313 313 313 311 309 303 294 288 282 281 280 279 279 279 278 277 276 275 273 271 268 265
345 343 340 339 337 336 334 332 330 327 322 322 322 316 310 306 309 308 306 307 307 307 308 307 306 303 301 299 294 287 282 279 276 277 276 276 275 275 274 272 271 270 267
341 341 340 338 336 334 333 331 328 326 324 320 320 319 315 312 307 303 303 304 304 304 304 303 303 300 298 297 294 291 289 284 276 276 275 274 273 272 273 271 270 268 269
340 339 338 337 336 335 336 334 331 329 327 323 321 317 313 311 309 305 299 300 302 302 301 302 302 300 296 293 290 288 286 286 284 275 276 275 273 270 269 272 270 268 267
335 339 339 341 341 339 337 335 332 330 326 323 320 317 314 311 308 307 304 301 300 300 302 302 302 303 300 296 287 283 281 279 281 276 274 278 277 271 268 270 270 268 266
334 339 340 340 338 336 335 332 329 326 323 319 316 314 312 310 309 307 304 303 299 300 299 300 303 304 303 300 296 286 279 276 268 273 270 271 276 276 272 271 270 270 267
335 340 340 339 337 335 333 331 330 329 328 323 320 318 316 316 315 313 311 309 302 300 298 297 302 304 307 305 301 295 284 277 272 268 264 264 263 273 276 274 270 269 269
334 337 338 337 336 336 335 334 332 330 328 327 326 325 324 322 320 319 318 313 314 308 301 303 303 305 304 309 308 306 298 290 277 268 262 259 261 269 268 272 270 270 266
333 334 335 336 337 336 338 336 334 335 332 329 328 327 327 325 322 320 317 313 310 308 304 302 297 299 307 311 313 313 304 299 289 276 264 255 257 261 267 264 265 268 266
329 333 332 333 336 339 341 337 337 340 339 337 336 331 327 324 320 317 314 310 305 301 300 303 298 296 301 306 310 310 308 305 297 281 269 258 253 256 264 262 262 263 265
331 333 335 334 337 334 340 340 343 348 344 339 333 328 324 322 319 316 312 307 303 299 295 293 296 295 295 298 302 309 308 302 300 297 281 266 258 256 263 265 266 264 266
338 332 333 335 338 333 337 340 345 344 340 337 334 330 326 323 318 314 310 306 302 298 294 291 288 290 290 293 292 297 301 298 297 291 292 280 268 262 256 261 263 265 267
333 331 334 335 335 336 339 342 343 342 340 337 335 332 329 326 323 318 313 307 303 297 291 288 286 287 287 287 289 287 287 290 287 291 282 291 301 280 264 264 266 267 270
333 333 336 335 337 340 346 345 345 343 339 337 336 335 335 332 327 322 316 312 307 301 296 289 285 283 282 282 281 284 282 281 279 280 280 282 285 285 283 281 277 274 271
340 340 338 338 342 351 349 349 346 343 342 340 340 340 341 340 338 331 321 308 304 298 293 293 288 283 280 280 282 280 279 277 273 278 275 271 279 278 280 283 286 279 276
345 344 343 352 354 353 352 349 346 346 345 345 344 345 345 345 341 340 332 316 301 297 293 288 284 282 277 277 278 276 276 276 272 276 278 268 272 271 278 280 279 277 277
349 351 356 358 357 354 353 351 351 350 349 349 349 349 347 345 344 342 343 328 310 302 297 290 284 283 275 273 272 272 272 275 274 275 278 269 272 271 275 274 273 277 275
359 358 0 358 357 357 357 356 354 354 353 352 353 352 352 351 349 346 350 343 317 300 301 291 285 285 276 270 268 270 270 269 267 271 280 275 272 271 271 272 275 274 272
355 1 0 360 0 360 358 359 358 357 355 358 360 2 3 3 2 355 358 354 340 265 275 276 275 269 264 260 261 263 265 260 268 274 280 278 276 280 276 277 275 275 275